Latest Weather Observations for Wattamolla

IDN60801

Issued at 12:05 pm EST Sunday 31 August 2014 (issued every 30 minutes, with the page automatically refreshed every 10 minutes)

About weather observations | Map of weather stations | Latest weather observations for NSW | Other Formats
Station Details ID: 066208 Name: WATTAMOLLA AWS Lat: -34.14 Lon: 151.12 Height: 44.0 m
Data from the previous 72 hours. | See also: Recent months for locations in New South Wales
Date/Time
EST
Temp
°C
App
Temp
°C
Dew
Point
Rel
Hum
%
Delta-T
°C
Wind Press
QNH
hPa
Press
MSL
hPa
Rain
since 9 am
mm
Dir
 
Spd
km/h
Gust
km/h
Spd
kts
Gust
kts
31/12:00pm - - - - - S 19 20 10 11 - - -
31/11:30am - - - - - S 20 24 11 13 - - -
31/11:00am - - - - - S 20 22 11 12 - - -
31/10:30am - - - - - S 20 26 11 14 - - -
31/10:00am - - - - - S 20 26 11 14 - - -
31/09:30am - - - - - S 17 26 9 14 - - -
31/09:00am - - - - - S 13 19 7 10 - - -
31/08:30am - - - - - SSW 13 20 7 11 - - -
31/08:00am - - - - - S 11 17 6 9 - - -
31/07:30am - - - - - W 11 17 6 9 - - -
31/07:00am - - - - - W 13 15 7 8 - - -
31/06:30am - - - - - W 11 17 6 9 - - -
31/06:00am - - - - - W 11 15 6 8 - - -
31/05:30am - - - - - S 19 30 10 16 - - -
31/05:00am - - - - - S 24 32 13 17 - - -
31/04:30am - - - - - S 24 33 13 18 - - -
31/04:00am - - - - - S 22 33 12 18 - - -
31/03:30am - - - - - S 35 43 19 23 - - -
31/03:00am - - - - - S 33 44 18 24 - - -
31/02:30am - - - - - S 37 44 20 24 - - -
31/02:00am - - - - - S 35 48 19 26 - - -
31/01:30am - - - - - S 37 46 20 25 - - -
31/01:00am - - - - - S 35 46 19 25 - - -
31/12:30am - - - - - S 28 39 15 21 - - -
31/12:05am - - - - - S 32 50 17 27 - - -
31/12:00am - - - - - S 37 50 20 27 - - -
 
Date/Time
EST
Temp
°C
App
Temp
°C
Dew
Point
Rel
Hum
%
Delta-T
°C
Wind Press
QNH
hPa
Press
MSL
hPa
Rain
since 9 am
mm
Dir
 
Spd
km/h
Gust
km/h
Spd
kts
Gust
kts
30/11:30pm - - - - - S 43 54 23 29 - - -
30/11:00pm - - - - - S 43 56 23 30 - - -
30/10:30pm - - - - - S 52 63 28 34 - - -
30/10:00pm - - - - - S 43 54 23 29 - - -
30/09:30pm - - - - - S 44 56 24 30 - - -
30/09:14pm - - - - - S 37 59 20 32 - - -
30/09:00pm - - - - - S 43 59 23 32 - - -
30/08:30pm - - - - - S 48 61 26 33 - - -
30/08:00pm - - - - - S 44 57 24 31 - - -
30/07:30pm - - - - - S 46 61 25 33 - - -
30/07:05pm - - - - - S 33 54 18 29 - - -
30/07:00pm - - - - - - - - - - - - -
30/06:44pm - - - - - S 43 61 23 33 - - -
30/06:30pm - - - - - S 48 61 26 33 - - -
30/06:13pm - - - - - S 57 65 31 35 - - -
30/06:00pm - - - - - S 39 57 21 31 - - -
30/05:37pm - - - - - S 48 67 26 36 - - -
30/05:30pm - - - - - S 50 63 27 34 - - -
30/05:00pm - - - - - S 54 74 29 40 - - -
30/04:30pm - - - - - S 50 61 27 33 - - -
30/04:07pm - - - - - S 43 63 23 34 - - -
30/04:00pm - - - - - S 39 50 21 27 - - -
30/03:30pm - - - - - S 43 63 23 34 - - -
30/03:00pm - - - - - S 46 65 25 35 - - -
30/02:44pm - - - - - S 52 72 28 39 - - -
30/02:30pm - - - - - S 46 61 25 33 - - -
30/02:00pm - - - - - S 39 57 21 31 - - -
30/01:30pm - - - - - S 52 65 28 35 - - -
30/01:08pm - - - - - S 46 67 25 36 - - -
30/01:00pm - - - - - S 46 61 25 33 - - -
30/12:30pm - - - - - S 50 70 27 38 - - -
30/12:00pm - - - - - S 50 69 27 37 - - -
30/11:41am - - - - - S 61 80 33 43 - - -
30/11:30am - - - - - S 57 74 31 40 - - -
30/11:28am - - - - - S 56 74 30 40 - - -
30/11:00am - - - - - S 63 72 34 39 - - -
30/10:30am - - - - - S 63 76 34 41 - - -
30/10:00am - - - - - S 65 74 35 40 - - -
30/09:32am - - - - - S 61 80 33 43 - - -
30/09:30am - - - - - S 59 76 32 41 - - -
30/09:04am - - - - - S 59 78 32 42 - - -
30/09:00am - - - - - S 61 76 33 41 - - -
30/08:30am - - - - - S 63 82 34 44 - - -
30/08:00am - - - - - S 57 80 31 43 - - -
30/07:51am - - - - - S 57 80 31 43 - - -
30/07:30am - - - - - S 61 78 33 42 - - -
30/07:21am - - - - - S 59 78 32 42 - - -
30/07:00am - - - - - S 61 74 33 40 - - -
30/06:35am - - - - - S 59 78 32 42 - - -
30/06:30am - - - - - S 63 78 34 42 - - -
30/06:06am - - - - - S 56 74 30 40 - - -
30/06:00am - - - - - S 57 74 31 40 - - -
30/05:51am - - - - - S 57 76 31 41 - - -
30/05:30am - - - - - S 65 78 35 42 - - -
30/05:00am - - - - - S 72 82 39 44 - - -
30/04:30am - - - - - S 70 87 38 47 - - -
30/04:00am - - - - - S 74 85 40 46 - - -
30/03:30am - - - - - S 72 80 39 43 - - -
30/03:00am - - - - - S 76 89 41 48 - - -
30/02:32am - - - - - S 65 83 35 45 - - -
30/02:30am - - - - - S 63 78 34 42 - - -
30/02:00am - - - - - S 67 80 36 43 - - -
30/01:30am - - - - - S 59 74 32 40 - - -
30/01:22am - - - - - S 63 82 34 44 - - -
30/01:00am - - - - - S 70 85 38 46 - - -
30/12:56am - - - - - S 72 82 39 44 - - -
30/12:30am - - - - - S 50 69 27 37 - - -
30/12:13am - - - - - S 39 59 21 32 - - -
30/12:12am - - - - - S 37 52 20 28 - - -
30/12:00am - - - - - S 56 80 30 43 - - -
 
Date/Time
EST
Temp
°C
App
Temp
°C
Dew
Point
Rel
Hum
%
Delta-T
°C
Wind Press
QNH
hPa
Press
MSL
hPa
Rain
since 9 am
mm
Dir
 
Spd
km/h
Gust
km/h
Spd
kts
Gust
kts
29/11:30pm - - - - - S 59 78 32 42 - - -
29/11:00pm - - - - - S 52 72 28 39 - - -
29/10:41pm - - - - - S 56 74 30 40 - - -
29/10:30pm - - - - - S 50 67 27 36 - - -
29/10:00pm - - - - - S 46 67 25 36 - - -
29/09:59pm - - - - - S 50 59 27 32 - - -
29/09:30pm - - - - - S 72 83 39 45 - - -
29/09:00pm - - - - - S 69 82 37 44 - - -
29/08:37pm - - - - - S 69 87 37 47 - - -
29/08:30pm - - - - - S 72 87 39 47 - - -
29/08:00pm - - - - - S 69 82 37 44 - - -
29/07:30pm - - - - - S 69 85 37 46 - - -
29/07:00pm - - - - - S 72 91 39 49 - - -
29/06:58pm - - - - - S 72 91 39 49 - - -
29/06:30pm - - - - - S 72 85 39 46 - - -
29/06:00pm - - - - - S 72 83 39 45 - - -
29/05:30pm - - - - - S 63 74 34 40 - - -
29/05:00pm - - - - - S 65 78 35 42 - - -
29/04:30pm - - - - - S 57 70 31 38 - - -
29/04:00pm - - - - - S 52 65 28 35 - - -
29/03:42pm - - - - - S 54 72 29 39 - - -
29/03:30pm - - - - - S 54 65 29 35 - - -
29/03:00pm - - - - - S 54 63 29 34 - - -
29/02:30pm - - - - - S 52 63 28 34 - - -
29/02:00pm - - - - - S 50 57 27 31 - - -
29/01:30pm - - - - - S 46 61 25 33 - - -
29/01:00pm - - - - - S 30 48 16 26 - - -
29/12:54pm - - - - - S 28 48 15 26 - - -
29/12:30pm - - - - - SSW 22 37 12 20 - - -
29/12:08pm - - - - - S 33 52 18 28 - - -
29/12:00pm - - - - - S 41 52 22 28 - - -
29/11:57am - - - - - S 41 59 22 32 - - -
29/11:30am - - - - - S 56 72 30 39 - - -
29/11:27am - - - - - S 54 72 29 39 - - -
29/11:00am - - - - - S 41 50 22 27 - - -
29/10:31am - - - - - S 28 46 15 25 - - -
29/10:30am - - - - - S 28 37 15 20 - - -
29/10:00am - - - - - S 46 57 25 31 - - -
29/09:33am - - - - - S 35 54 19 29 - - -
29/09:30am - - - - - S 41 56 22 30 - - -
29/09:00am - - - - - S 44 59 24 32 - - -
29/08:30am - - - - - S 35 48 19 26 - - -
29/08:09am - - - - - S 30 50 16 27 - - -
29/08:00am - - - - - S 33 46 18 25 - - -
29/07:30am - - - - - S 43 54 23 29 - - -
29/07:00am - - - - - S 37 54 20 29 - - -
29/06:56am - - - - - S 33 54 18 29 - - -
29/06:30am - - - - - S 37 50 20 27 - - -
29/06:00am - - - - - S 33 54 18 29 - - -
29/05:51am - - - - - S 35 54 19 29 - - -
29/05:30am - - - - - S 43 52 23 28 - - -
29/05:00am - - - - - S 46 52 25 28 - - -
29/04:30am - - - - - S 37 50 20 27 - - -
29/04:00am - - - - - S 35 41 19 22 - - -
29/03:40am - - - - - S 32 50 17 27 - - -
29/03:30am - - - - - S 28 41 15 22 - - -
29/03:00am - - - - - S 32 48 17 26 - - -
29/02:30am - - - - - S 37 46 20 25 - - -
29/02:00am - - - - - S 41 48 22 26 - - -
29/01:30am - - - - - S 35 44 19 24 - - -
29/01:12am - - - - - S 28 46 15 25 - - -
29/01:00am - - - - - S 20 35 11 19 - - -
29/12:30am - - - - - S 19 37 10 20 - - -
29/12:00am - - - - - S 22 37 12 20 - - -
 
Date/Time
EST
Temp
°C
App
Temp
°C
Dew
Point
Rel
Hum
%
Delta-T
°C
Wind Press
QNH
hPa
Press
MSL
hPa
Rain
since 9 am
mm
Dir
 
Spd
km/h
Gust
km/h
Spd
kts
Gust
kts
28/11:49pm - - - - - S 28 46 15 25 - - -
28/11:30pm - - - - - S 33 41 18 22 - - -
28/11:00pm - - - - - S 28 37 15 20 - - -
28/10:30pm - - - - - S 20 35 11 19 - - -
28/10:00pm - - - - - SSW 17 26 9 14 - - -
28/09:30pm - - - - - SW 17 28 9 15 - - -
28/09:00pm - - - - - SSE 33 44 18 24 - - -
28/08:30pm - - - - - S 32 44 17 24 - - -
28/08:00pm - - - - - S 35 44 19 24 - - -
28/07:30pm - - - - - SSE 35 48 19 26 - - -
28/07:00pm - - - - - SSE 37 46 20 25 - - -
28/06:30pm - - - - - S 37 46 20 25 - - -
28/06:00pm - - - - - SSE 37 50 20 27 - - -
28/05:30pm - - - - - SSE 37 48 20 26 - - -
28/05:00pm - - - - - SSE 35 48 19 26 - - -
28/04:30pm - - - - - S 35 48 19 26 - - -
28/04:00pm - - - - - SSE 37 52 20 28 - - -
28/03:30pm - - - - - SSE 39 52 21 28 - - -
28/03:16pm - - - - - SSE 37 56 20 30 - - -
28/03:00pm - - - - - SSE 41 56 22 30 - - -
28/02:30pm - - - - - S 37 54 20 29 - - -
28/02:00pm - - - - - S 35 50 19 27 - - -
28/01:30pm - - - - - S 41 52 22 28 - - -
28/01:00pm - - - - - S 35 50 19 27 - - -
28/12:30pm - - - - - S 37 48 20 26 - - -

Other Formats:

Comma delimited format used in spreadsheet applications
http://www.bom.gov.au/fwo/IDN60801/IDN60801.95752.axf

JavaScript Object Notation format (JSON) in row-major order
http://www.bom.gov.au/fwo/IDN60801/IDN60801.95752.json